Showing default

QIANFAN-39, 62240

Orbit data source: Space-Track

QIANFAN-39, 62240 is a Chinese payload satellite in LEO that was launched on Thu, 05 Dec 2024 UTC via a CHANG ZHENG 6A launch vehicle from the Taiyaun Space Center, China (TSC). Payload-class satellites include a variety of spacecraft equipped with specific instruments for various scientific and technological missions. These include communications satellites like Starlink; space stations such as the ISS; scientific satellites like the Hubble; Earth observation satellites from companies like Planet Labs, Umbra, and HawkEye 360; GPS; miniature CubeSats for education and research; and military/defense satellites.

Loading next visibility...
Identifier
62240, 2024-232D
Orbit
LEO
Country
Flag of CNCN / PRC
Related business
Manufacturer
SECM
Mission
Operational Commercial Communications
Bus & Motor
QIANFAN, Unknown motor
Mass
267 kg wet, ~267 kg dry
Launch date (UTC)
2024-12-05 (1 year ago)
Launch vehicle
CHANG ZHENG 6A
Launch site
Taiyaun Space Center, China (TSC)
Object type
Payload
Rocket body
Debris
Shape & HBR
Box + 1 Pan, 5.0 m
Radar Cross Section
13.200 m², Large (>1 m²)

Expand to show TLE details & history
Last TLE update: 6 hours ago

TLE from 6 hours ago
0 QIANFAN-39
1 62240U 24232D   26035.12668122  .00000152  00000-0  58189-4 0  9994
2 62240  89.0009  31.1952 0013833 263.4038  96.5581 14.25419756108992
Epoch: 2026-02-04T03:02Z
TLE epoch observation values (Epoch: 2026-02-04T03:02:25.257Z)
Latitude
0.00003°
Longitude
-148.70777°
Altitude
811.291 km
Speed
7.447 km/s
True Right ascension
02h 04m 46s
True Declination
0° 00' 00"
Sunlit
Object was in daylight at epoch
Visualization orbit readout
Latitude
Unknown
Longitude
Unknown
Altitude
Unknown
Speed
Unknown
Apparent Right ascension
Unknown
Apparent Declination
Unknown
Sunlit
N/A
Visualization observer readout
Local Sidereal Time
10:42:37
Azimuth
Unknown
Elevation
Unknown
Doppler factor
Unknown
Orbital elements
Apogee altitude
813.96 km
Perigee altitude
794.09 km
Semi-major axis
7,182.162 km
Eccentricity
0.00138
Inclination
89.0009°
RAAN
31.1952°
Arg. of periapsis
263.4038°
True anomaly
96.71555°
Mean anomaly
96.5581°
Eccentric anomaly
96.63683°
Mean motion
3.56583 °/min
Orbital period
100.96 mins
BSTAR
0.000058189
Loading maneuver chart data...
Computing Atmospheric mass density...
Loading historical data...
Loading historical data...
Loading historical data...
Loading historical data...
Loading historical data...
Loading historical data...
Loading historical data...

Documentation

Showing up to 5 results
|